Regional Weather Roundup
Issued by NWS

Home | Current Version | Previous Version | Graphics & Text | Print | Product List | Glossary On
Versions: 1 2 3 4 5 6 7 8 9 10 11 12 13 14 15 16 17 18 19 20 21 22 23 24 25 26 27 28 29 30 31 32 33 34 35 36 37 38 39 40 41 42 43 44 45 46 47 48 49 50
000
ASUS45 KBOU 241607
RWRCO

WEATHER ROUNDUP FOR COLORADO
NATIONAL WEATHER SERVICE DENVER/BOULDER CO
1000 AM MDT SUN MAY 24 2015

NOTE: "FAIR" INDICATES FEW OR NO CLOUDS BELOW 12000 FEET WITH NO
SIGNIFICANT WEATHER AND/OR OBSTRUCTIONS TO VISIBILITY.

COZ001>005-013-030-031-241700-
...NORTHWEST COLORADO...

CITY           SKY/WX    TMP DP  RH WIND       PRES   REMARKS
CRAIG          LGT RAIN  44  39  82 NW6       29.97R
HAYDEN         CLOUDY    43  36  75 NW10      29.96S
MEEKER         LGT RAIN  45  37  73 CALM      29.95F
MOUNT WERNER   NOT AVBL
STEAMBOAT SPGS CLOUDY    47  35  64 CALM      29.95S
WALDEN         PTSUNNY   45  32  61 S13       29.96R
$$

COZ006>008-011-241700-
...WEST CENTRAL VALLEYS...

CITY           SKY/WX    TMP DP  RH WIND       PRES   REMARKS
GRAND JUNCTION PTSUNNY   53  42  66 VRB3      29.95F
MONTROSE       MOSUNNY   51  38  60 E5        29.98F
EAGLE          MOSUNNY   48  37  66 CALM      29.97F
RIFLE          PTSUNNY   50  41  71 N3        29.96F
DELTA          MOSUNNY   52  43  70 MISG      29.98S
NUCLA          CLOUDY    50  39  66 CALM      30.03S
$$

COZ017>023-064>068-241700-
...SOUTHWEST COLORADO...

CITY           SKY/WX    TMP DP  RH WIND       PRES   REMARKS
DURANGO        CLOUDY    45  40  82 CALM      30.01S
CORTEZ         CLOUDY    48  42  80 NW3       30.00S
PAGOSA SPRINGS DRIZZLE   40  39  97 CALM      30.03S
TELLURIDE      CLOUDY    38  33  84 CALM      30.05S
WOLF CREEK PAS NOT AVBL
$$

COZ009-010-012-014-032>034-037-058>063-241700-
...CENTRAL COLORADO...

CITY           SKY/WX    TMP DP  RH WIND       PRES   REMARKS
ASPEN          PTSUNNY   45  32  60 VRB3      29.96F
BUENA VISTA    PTSUNNY   46  32  56 SE9       29.98F
COPPER MTN     CLOUDY    34  23  64 S8        30.07S WCI  27
BERTHOUD PASS  FLURRIES  23  14  68 MISG      30.09S
COTTONWOOD PAS PTSUNNY   45  30  57 E7        30.02S
GUNNISON       PTSUNNY   45  30  57 E3        30.02S
KREMMLING      PTSUNNY   43  32  65 SE5       30.01S
LEADVILLE      CLOUDY    36  22  56 SW8       30.01R
SALIDA         CLOUDY    50  35  55 SE6       30.04F
SUNLIGHT       CLOUDY    34  32  93 CALM        N/A
WILKERSON PASS CLOUDY    32  28  86 MISG      30.09R
$$

COZ069>075-241700-
...SAN LUIS VALLEY/SANGRE DE CRISTO MOUNTAINS...

CITY           SKY/WX    TMP DP  RH WIND       PRES   REMARKS
ALAMOSA        CLOUDY    48  32  53 W3        29.97S
LA VETA PASS   CLOUDY   N/A N/A N/A MISG      30.03S
SAGUACHE       PTSUNNY   43  34  70 SE7       30.00S
$$

COZ035-036-038>040-241700-
...NORTHERN COLORADO FRONT RANGE...

CITY           SKY/WX    TMP DP  RH WIND       PRES   REMARKS
DENVER INTL AP PTSUNNY   55  43  63 NE5       29.90S
DMNS CITY PARK   N/A     55  40  57 NE6       29.89F
AURORA         PTSUNNY   53  43  70 NE8       29.91S
FRONT RANGE AP PTSUNNY   55  46  71 N9        29.91S
ERIE MUNI ARPT MOSUNNY   55  43  66 NE6       29.90S
BOULDER MUN AP MOSUNNY   54  43  66 E3        29.89F
CENTENNIAL     PTSUNNY   53  41  63 N5        29.90S
BROOMFIELD     PTSUNNY   54  41  62 N3        29.91S
FORT COLLINS   SUNNY     55  45  67 SE3       29.90F
LONGMONT       SUNNY     60  44  54 CALM      29.90F
$$

COZ041-046-047-076>085-087-088-241700-
...PIKES PEAK/PALMER DIVIDE AND SOUTHERN FOOTHILLS...

CITY           SKY/WX    TMP DP  RH WIND       PRES   REMARKS
COLO. SPRINGS  PTSUNNY   51  41  68 VRB3      29.93R
A. F. ACADEMY  CLOUDY    50  40  68 CALM      29.92S
ELLICOTT       NOT AVBL
FALCON         PTSUNNY   52  38  58 S8        29.94S
FORT CARSON    CLOUDY    51  45  77 N2        29.90S
LIMON          PTSUNNY   54  45  71 E8        29.91S
MONUMENT HILL  NOT AVBL
TRINIDAD       MOSUNNY   55  45  68 E12       29.89F
$$

COZ042>045-048>051-090-091-241700-
...NORTHEAST COLORADO...

CITY           SKY/WX    TMP DP  RH WIND       PRES   REMARKS
GREELEY ARPT   SUNNY     54  45  71 E3        29.91S
AKRON            N/A    N/A N/A N/A MISG      29.89F
BURLINGTON     CLOUDY    58  51  78 CALM      29.90S
WRAY           PTSUNNY   60  52  74 CALM      29.89S
STERLING       PTSUNNY   55  50  82 W5        29.89S
HOLYOKE        NOT AVBL
FORT MORGAN    PTSUNNY   55  47  75 CALM      29.91S
$$

COZ086-089-092>099-241700-
...SOUTHEAST COLORADO...

CITY           SKY/WX    TMP DP  RH WIND       PRES   REMARKS
PUEBLO         PTSUNNY   57  46  66 CALM      29.88R
LA JUNTA       PTSUNNY   58  50  75 SE6       29.88F
LAMAR          MOSUNNY   62  52  69 SW7       29.85S
SPRINGFIELD      N/A     63  51  65 CALM      29.86F
$$


USA.gov is the U.S. government's official web portal to all federal, state and local government web resources and services.